This is the latest recevied weather packets stored in our database for station/object DH1BUZ-12. If no packets are shown the sender has not sent any weather packets the latest 10 day(s).
| Time | Temp. | Humidity | Pressure | Rain* | Wind** | Luminosity | Snow |
|---|---|---|---|---|---|---|---|
| 1777280160 | 13.89° C | 51% | 1021 hPa | - | - | - | - |
| 1777280095 | 13.89° C | 52% | 1021 hPa | - | - | - | - |
| 1777280029 | 13.89° C | 51% | 1021 hPa | - | - | - | - |
| 1777279964 | 13.89° C | 53% | 1021 hPa | - | - | - | - |
| 1777279898 | 13.89° C | 53% | 1022 hPa | - | - | - | - |
| 1777279832 | 13.89° C | 55% | 1022 hPa | - | - | - | - |
| 1777279767 | 13.33° C | 53% | 1021 hPa | - | - | - | - |
| 1777279701 | 13.89° C | 52% | 1022 hPa | - | - | - | - |
| 1777279636 | 13.89° C | 51% | 1021 hPa | - | - | - | - |
| 1777279570 | 14.44° C | 52% | 1021 hPa | - | - | - | - |
| 1777279505 | 13.89° C | 52% | 1021 hPa | - | - | - | - |
| 1777279439 | 13.89° C | 53% | 1021 hPa | - | - | - | - |
| 1777279373 | 13.33° C | 53% | 1021 hPa | - | - | - | - |
| 1777279308 | 13.33° C | 53% | 1021 hPa | - | - | - | - |
| 1777279242 | 13.33° C | 55% | 1021 hPa | - | - | - | - |
| 1777279177 | 13.33° C | 54% | 1021 hPa | - | - | - | - |
| 1777279111 | 12.78° C | 57% | 1022 hPa | - | - | - | - |
| 1777279046 | 12.78° C | 56% | 1021 hPa | - | - | - | - |
| 1777278980 | 12.78° C | 54% | 1021 hPa | - | - | - | - |
| 1777278914 | 12.78° C | 54% | 1021 hPa | - | - | - | - |
| 1777278849 | 12.78° C | 53% | 1021 hPa | - | - | - | - |
| 1777278783 | 12.78° C | 54% | 1021 hPa | - | - | - | - |
| 1777278718 | 12.78° C | 55% | 1021 hPa | - | - | - | - |
| 1777278652 | 12.78° C | 55% | 1021 hPa | - | - | - | - |
| 1777278587 | 12.78° C | 55% | 1021 hPa | - | - | - | - |
* Rain since midnight (hover to see other rain measurements)
** Current wind speed in m/s (hover to see current wind gust speed)